OCN4AP EDDM-LGMK

Flight info

Callsign OCN4AP
Flight time 2h 6m
Altitude 33000
Route VAVOR M867 RADIZ DCT LUMUS/N0443F370 DCT MEDUX UM867 KOGAT DCT ERANA DCT TSL UL617 AGISA DCT SKP UN137 AGAPU
Aircraft A320/M-SDE2E3FGIJ1LORWXYZ/HB1

Departure

Time 2026-05-05 05:57
Airport Munich Airport (EDDM)

Arrival

Time 2026-05-05 08:03
Airport Mykonos Island National Airport (LGMK)
Time Latitude Longitude Altitude Speed Heading
2026-05-05 05:11 48.35547 11.79303 1486 ft 0 kts 263°
2026-05-05 05:49 48.35548 11.79318 1485 ft 4 kts 263°
2026-05-05 05:50 48.35551 11.79358 1481 ft 4 kts 263°
2026-05-05 05:50 48.35554 11.79390 1478 ft 4 kts 252°
2026-05-05 05:50 48.35566 11.79422 1475 ft 4 kts 211°
2026-05-05 05:50 48.35589 11.79431 1478 ft 3 kts 173°
2026-05-05 05:51 48.35605 11.79428 1479 ft 0 kts 173°
2026-05-05 05:52 48.35599 11.79429 1479 ft 4 kts 173°
2026-05-05 05:53 48.35539 11.79439 1481 ft 13 kts 173°
2026-05-05 05:53 48.35444 11.79456 1475 ft 14 kts 173°
2026-05-05 05:53 48.35340 11.79473 1476 ft 16 kts 173°
2026-05-05 05:53 48.35227 11.79493 1479 ft 17 kts 173°
2026-05-05 05:54 48.35103 11.79515 1483 ft 19 kts 173°
2026-05-05 05:54 48.34994 11.79562 1471 ft 16 kts 124°
2026-05-05 05:54 48.34929 11.79681 1477 ft 16 kts 170°
2026-05-05 05:54 48.34819 11.79720 1481 ft 17 kts 136°
2026-05-05 05:55 48.34816 11.79890 1485 ft 17 kts 83°
2026-05-05 05:55 48.34829 11.80055 1481 ft 15 kts 83°
2026-05-05 05:55 48.34801 11.80193 1476 ft 14 kts 129°
2026-05-05 05:55 48.34705 11.80248 1485 ft 17 kts 174°
2026-05-05 05:56 48.34574 11.80270 1478 ft 20 kts 173°
2026-05-05 05:56 48.34475 11.80275 1485 ft 11 kts 207°
2026-05-05 05:56 48.34458 11.80165 1485 ft 12 kts 264°
2026-05-05 05:56 48.34444 11.79976 1485 ft 36 kts 263°
2026-05-05 05:57 48.34386 11.79233 1486 ft 104 kts 263°
2026-05-05 05:57 48.34280 11.77874 1486 ft 155 kts 263°
2026-05-05 05:57 48.34138 11.76147 1907 ft 168 kts 262°
2026-05-05 05:57 48.34002 11.74399 2670 ft 168 kts 264°
2026-05-05 05:58 48.33839 11.72584 3139 ft 185 kts 253°
2026-05-05 05:58 48.33022 11.71011 3394 ft 208 kts 208°
2026-05-05 05:58 48.31578 11.70469 3808 ft 220 kts 185°
2026-05-05 05:58 48.30036 11.70411 4548 ft 221 kts 179°
2026-05-05 05:59 48.28537 11.70914 5328 ft 224 kts 155°
2026-05-05 05:59 48.27180 11.72243 5812 ft 245 kts 144°
2026-05-05 05:59 48.25731 11.73811 6264 ft 266 kts 146°
2026-05-05 05:59 48.24204 11.75468 6980 ft 274 kts 142°
2026-05-05 06:00 48.22723 11.77293 7824 ft 277 kts 140°
2026-05-05 06:00 48.21273 11.79164 8673 ft 280 kts 140°
2026-05-05 06:00 48.19797 11.81096 9546 ft 283 kts 139°
2026-05-05 06:00 48.18282 11.83083 10252 ft 292 kts 139°
2026-05-05 06:01 48.16689 11.85163 10508 ft 315 kts 140°
2026-05-05 06:01 48.14977 11.87385 10835 ft 334 kts 140°
2026-05-05 06:01 48.13220 11.89657 11457 ft 341 kts 140°
2026-05-05 06:01 48.11387 11.92013 12179 ft 345 kts 140°
2026-05-05 06:02 48.09578 11.94331 12891 ft 349 kts 141°
2026-05-05 06:02 48.07723 11.96702 13609 ft 353 kts 141°
2026-05-05 06:02 48.05848 11.99100 14242 ft 357 kts 141°
2026-05-05 06:02 48.03955 12.01525 14850 ft 360 kts 141°
2026-05-05 06:03 48.02043 12.03975 15465 ft 364 kts 141°
2026-05-05 06:03 48.00108 12.06452 16073 ft 368 kts 141°
2026-05-05 06:03 47.98150 12.08953 16684 ft 372 kts 141°
2026-05-05 06:03 47.96171 12.11477 17279 ft 376 kts 141°
2026-05-05 06:04 47.94172 12.14022 17873 ft 380 kts 141°
2026-05-05 06:04 47.92149 12.16597 18422 ft 383 kts 141°
2026-05-05 06:04 47.90112 12.19189 18942 ft 387 kts 141°
2026-05-05 06:04 47.88057 12.21798 19452 ft 390 kts 141°
2026-05-05 06:05 47.85986 12.24422 19956 ft 393 kts 141°
2026-05-05 06:05 47.83898 12.27068 20451 ft 396 kts 141°
2026-05-05 06:05 47.81793 12.29733 20946 ft 399 kts 141°
2026-05-05 06:05 47.79671 12.32415 21438 ft 402 kts 141°
2026-05-05 06:06 47.77532 12.35115 21924 ft 405 kts 142°
2026-05-05 06:06 47.75377 12.37828 22393 ft 408 kts 141°
2026-05-05 06:06 47.73205 12.40558 22870 ft 410 kts 142°
2026-05-05 06:06 47.71012 12.43315 23345 ft 413 kts 142°
2026-05-05 06:07 47.68844 12.46042 23739 ft 416 kts 142°
2026-05-05 06:07 47.66629 12.48827 24119 ft 418 kts 142°
2026-05-05 06:07 47.64398 12.51624 24499 ft 421 kts 142°
2026-05-05 06:07 47.62210 12.54519 24865 ft 424 kts 136°
2026-05-05 06:08 47.60190 12.57747 25241 ft 427 kts 135°
2026-05-05 06:08 47.58170 12.60994 25610 ft 430 kts 135°
2026-05-05 06:08 47.56139 12.64259 25970 ft 432 kts 135°
2026-05-05 06:08 47.54089 12.67549 26315 ft 436 kts 134°
2026-05-05 06:09 47.52026 12.70862 26684 ft 438 kts 134°
2026-05-05 06:09 47.49952 12.74185 27037 ft 441 kts 135°
2026-05-05 06:09 47.47862 12.77524 27384 ft 444 kts 135°
2026-05-05 06:09 47.45780 12.80841 27723 ft 447 kts 135°
2026-05-05 06:10 47.43633 12.84261 28075 ft 449 kts 135°
2026-05-05 06:10 47.41528 12.87608 28400 ft 451 kts 135°
2026-05-05 06:10 47.39386 12.91007 28730 ft 454 kts 135°
2026-05-05 06:10 47.37229 12.94422 29051 ft 456 kts 135°
2026-05-05 06:11 47.35059 12.97860 29336 ft 458 kts 135°
2026-05-05 06:11 47.32875 13.01319 29585 ft 461 kts 135°
2026-05-05 06:11 47.30679 13.04796 29893 ft 464 kts 135°
2026-05-05 06:11 47.29216 13.07112 30071 ft 466 kts 135°
2026-05-05 06:12 47.27002 13.10606 30328 ft 467 kts 135°
2026-05-05 06:12 47.24774 13.14107 30611 ft 468 kts 136°
2026-05-05 06:12 47.22546 13.17601 30988 ft 467 kts 136°
2026-05-05 06:12 47.19602 13.22210 31459 ft 465 kts 136°
2026-05-05 06:13 47.17389 13.25673 31848 ft 464 kts 136°
2026-05-05 06:13 47.15899 13.28006 32112 ft 462 kts 136°
2026-05-05 06:13 47.13702 13.31446 32489 ft 461 kts 136°
2026-05-05 06:13 47.11534 13.34840 32798 ft 462 kts 136°
2026-05-05 06:14 47.09337 13.38279 33132 ft 461 kts 136°
2026-05-05 06:14 47.07143 13.41705 33492 ft 460 kts 136°
2026-05-05 06:14 47.04956 13.45109 33863 ft 458 kts 136°
2026-05-05 06:14 47.02767 13.48505 34195 ft 457 kts 136°
2026-05-05 06:15 47.00589 13.51885 34516 ft 456 kts 136°
2026-05-05 06:15 46.98412 13.55258 34828 ft 455 kts 136°
2026-05-05 06:15 46.96241 13.58620 35133 ft 454 kts 136°
2026-05-05 06:15 46.94075 13.61970 35418 ft 453 kts 136°
2026-05-05 06:16 46.91909 13.65315 35652 ft 453 kts 136°
2026-05-05 06:16 46.89742 13.68658 35871 ft 453 kts 136°
2026-05-05 06:16 46.87571 13.72004 36127 ft 453 kts 136°
2026-05-05 06:16 46.85402 13.75343 36354 ft 453 kts 136°
2026-05-05 06:17 46.83234 13.78674 36596 ft 452 kts 136°
2026-05-05 06:17 46.81067 13.82001 36843 ft 452 kts 136°
2026-05-05 06:17 46.78900 13.85324 36968 ft 452 kts 136°
2026-05-05 06:17 46.76731 13.88640 36984 ft 451 kts 136°
2026-05-05 06:18 46.72396 13.95261 36978 ft 451 kts 136°
2026-05-05 06:18 46.68053 14.01881 36988 ft 452 kts 136°
2026-05-05 06:19 46.63702 14.08505 36998 ft 453 kts 136°
2026-05-05 06:19 46.59337 14.15118 37000 ft 453 kts 136°
2026-05-05 06:20 46.55132 14.21864 37003 ft 454 kts 133°
2026-05-05 06:20 46.51077 14.28919 36985 ft 454 kts 132°
2026-05-05 06:21 46.47022 14.35957 36981 ft 454 kts 133°
2026-05-05 06:21 46.42909 14.42916 36989 ft 455 kts 134°
2026-05-05 06:22 46.38762 14.49848 37018 ft 455 kts 134°
2026-05-05 06:22 46.34620 14.56785 37024 ft 455 kts 134°
2026-05-05 06:23 46.30505 14.63662 37018 ft 455 kts 134°
2026-05-05 06:23 46.26360 14.70579 37014 ft 455 kts 134°
2026-05-05 06:24 46.22207 14.77492 37009 ft 456 kts 133°
2026-05-05 06:24 46.18049 14.84400 37001 ft 456 kts 134°
2026-05-05 06:25 46.13881 14.91300 37001 ft 456 kts 133°
2026-05-05 06:25 46.09711 14.98198 36999 ft 456 kts 133°
2026-05-05 06:26 46.05533 15.05078 37009 ft 456 kts 134°
2026-05-05 06:26 46.01345 15.11947 37014 ft 456 kts 134°
2026-05-05 06:27 45.95062 15.22261 37015 ft 457 kts 134°
2026-05-05 06:28 45.90893 15.29087 37008 ft 457 kts 134°
2026-05-05 06:28 45.86687 15.35939 37011 ft 458 kts 134°
2026-05-05 06:29 45.82471 15.42780 37017 ft 458 kts 134°
2026-05-05 06:29 45.78244 15.49642 37028 ft 458 kts 134°
2026-05-05 06:30 45.74015 15.56475 37029 ft 458 kts 134°
2026-05-05 06:30 45.69779 15.63294 37023 ft 458 kts 134°
2026-05-05 06:31 45.65541 15.70108 37025 ft 458 kts 134°
2026-05-05 06:31 45.61334 15.76867 37030 ft 458 kts 134°
2026-05-05 06:32 45.57091 15.83671 37025 ft 458 kts 134°
2026-05-05 06:32 45.52846 15.90465 37023 ft 459 kts 134°
2026-05-05 06:33 45.48589 15.97254 37021 ft 459 kts 134°
2026-05-05 06:33 45.44331 16.04028 37028 ft 459 kts 134°
2026-05-05 06:34 45.40066 16.10783 37012 ft 459 kts 134°
2026-05-05 06:34 45.35789 16.17539 37011 ft 460 kts 134°
2026-05-05 06:35 45.31532 16.24259 37010 ft 461 kts 134°
2026-05-05 06:35 45.27237 16.31019 37021 ft 461 kts 134°
2026-05-05 06:36 45.22939 16.37777 37024 ft 461 kts 135°
2026-05-05 06:36 45.18631 16.44525 37034 ft 462 kts 134°
2026-05-05 06:37 45.14315 16.51266 37023 ft 462 kts 135°
2026-05-05 06:37 45.09985 16.58004 37024 ft 462 kts 135°
2026-05-05 06:38 45.05650 16.64740 37034 ft 463 kts 135°
2026-05-05 06:38 45.01318 16.71469 37032 ft 463 kts 135°
2026-05-05 06:39 44.96974 16.78207 37033 ft 464 kts 135°
2026-05-05 06:39 44.92649 16.84894 37033 ft 464 kts 135°
2026-05-05 06:40 44.88288 16.91604 37032 ft 464 kts 135°
2026-05-05 06:40 44.83911 16.98324 37036 ft 465 kts 135°
2026-05-05 06:41 44.79531 17.05044 37038 ft 465 kts 135°
2026-05-05 06:41 44.75149 17.11747 37040 ft 466 kts 135°
2026-05-05 06:42 44.70750 17.18461 37047 ft 466 kts 135°
2026-05-05 06:42 44.66350 17.25153 37051 ft 466 kts 135°
2026-05-05 06:43 44.61976 17.31793 37043 ft 467 kts 135°
2026-05-05 06:43 44.57559 17.38478 37050 ft 467 kts 135°
2026-05-05 06:44 44.53135 17.45152 37059 ft 468 kts 135°
2026-05-05 06:44 44.48705 17.51833 37064 ft 468 kts 135°
2026-05-05 06:45 44.44270 17.58507 37068 ft 468 kts 135°
2026-05-05 06:45 44.39829 17.65170 37069 ft 469 kts 135°
2026-05-05 06:46 44.35380 17.71833 37074 ft 469 kts 135°
2026-05-05 06:46 44.30924 17.78489 37083 ft 469 kts 135°
2026-05-05 06:47 44.26455 17.85132 37084 ft 469 kts 135°
2026-05-05 06:47 44.21988 17.91770 37084 ft 470 kts 135°
2026-05-05 06:48 44.17514 17.98418 37095 ft 470 kts 135°
2026-05-05 06:48 44.13026 18.05055 37085 ft 470 kts 135°
2026-05-05 06:49 44.08532 18.11676 37098 ft 471 kts 135°
2026-05-05 06:49 44.04059 18.18247 37100 ft 471 kts 135°
2026-05-05 06:50 43.99541 18.24886 37101 ft 472 kts 135°
2026-05-05 06:50 43.95028 18.31506 37104 ft 472 kts 135°
2026-05-05 06:51 43.90504 18.38105 37103 ft 472 kts 135°
2026-05-05 06:51 43.85978 18.44706 37092 ft 472 kts 135°
2026-05-05 06:52 43.81441 18.51304 37102 ft 472 kts 135°
2026-05-05 06:52 43.76935 18.57841 37111 ft 472 kts 135°
2026-05-05 06:53 43.72394 18.64414 37117 ft 473 kts 135°
2026-05-05 06:53 43.67849 18.70993 37121 ft 473 kts 135°
2026-05-05 06:54 43.63293 18.77562 37128 ft 474 kts 135°
2026-05-05 06:54 43.58729 18.84122 37119 ft 474 kts 135°
2026-05-05 06:55 43.54153 18.90678 37125 ft 475 kts 135°
2026-05-05 06:55 43.49571 18.97241 37127 ft 475 kts 135°
2026-05-05 06:56 43.44974 19.03793 37133 ft 476 kts 135°
2026-05-05 06:56 43.40376 19.10344 37134 ft 476 kts 135°
2026-05-05 06:57 43.35767 19.16888 37123 ft 476 kts 135°
2026-05-05 06:57 43.31148 19.23430 37122 ft 477 kts 135°
2026-05-05 06:58 43.26551 19.29941 37129 ft 478 kts 135°
2026-05-05 06:58 43.21913 19.36492 37132 ft 479 kts 135°
2026-05-05 06:59 43.17270 19.43040 37140 ft 479 kts 135°
2026-05-05 06:59 43.12619 19.49580 37148 ft 479 kts 135°
2026-05-05 07:00 43.07956 19.56114 37139 ft 480 kts 135°
2026-05-05 07:00 43.03282 19.62639 37139 ft 481 kts 135°
2026-05-05 07:01 42.98599 19.69170 37145 ft 481 kts 135°
2026-05-05 07:01 42.93914 19.75687 37152 ft 481 kts 135°
2026-05-05 07:02 42.89218 19.82202 37155 ft 481 kts 135°
2026-05-05 07:02 42.85309 19.87613 37148 ft 482 kts 135°
2026-05-05 07:03 42.79834 19.95174 37140 ft 483 kts 135°
2026-05-05 07:03 42.75875 20.00627 37138 ft 483 kts 135°
2026-05-05 07:04 42.71493 20.07571 37139 ft 484 kts 129°
2026-05-05 07:04 42.67246 20.14595 37150 ft 484 kts 129°
2026-05-05 07:05 42.62957 20.21651 37150 ft 484 kts 129°
2026-05-05 07:05 42.58666 20.28695 37137 ft 484 kts 129°
2026-05-05 07:06 42.54361 20.35749 37144 ft 486 kts 129°
2026-05-05 07:06 42.50049 20.42812 37148 ft 486 kts 129°
2026-05-05 07:07 42.45731 20.49869 37166 ft 486 kts 129°
2026-05-05 07:07 42.41409 20.56909 37170 ft 486 kts 129°
2026-05-05 07:08 42.37111 20.63890 37169 ft 485 kts 129°
2026-05-05 07:08 42.32780 20.70894 37167 ft 485 kts 129°
2026-05-05 07:09 42.28441 20.77908 37156 ft 486 kts 129°
2026-05-05 07:09 42.24111 20.84915 37168 ft 486 kts 129°
2026-05-05 07:10 42.19778 20.91908 37171 ft 485 kts 129°
2026-05-05 07:10 42.15436 20.98870 37171 ft 485 kts 129°
2026-05-05 07:11 42.11047 21.05762 37150 ft 484 kts 134°
2026-05-05 07:11 42.06202 21.11995 37165 ft 485 kts 136°
2026-05-05 07:12 42.01283 21.18220 37175 ft 485 kts 136°
2026-05-05 07:12 41.96364 21.24439 37173 ft 485 kts 136°
2026-05-05 07:13 41.91446 21.30654 37173 ft 485 kts 136°
2026-05-05 07:13 41.86536 21.36853 37171 ft 485 kts 136°
2026-05-05 07:14 41.81618 21.43043 37169 ft 485 kts 136°
2026-05-05 07:14 41.76703 21.49218 37154 ft 485 kts 136°
2026-05-05 07:15 41.71778 21.55388 37153 ft 485 kts 136°
2026-05-05 07:15 41.66875 21.61513 37153 ft 485 kts 136°
2026-05-05 07:16 41.61933 21.67675 37152 ft 486 kts 136°
2026-05-05 07:16 41.56987 21.73836 37155 ft 486 kts 136°
2026-05-05 07:17 41.52032 21.79985 37172 ft 486 kts 136°
2026-05-05 07:17 41.47079 21.86121 37167 ft 486 kts 136°
2026-05-05 07:18 41.42123 21.92256 37165 ft 485 kts 136°
2026-05-05 07:18 41.37167 21.98369 37165 ft 485 kts 136°
2026-05-05 07:19 41.32243 22.04432 37160 ft 485 kts 136°
2026-05-05 07:19 41.27287 22.10516 37153 ft 485 kts 136°
2026-05-05 07:20 41.22328 22.16601 37159 ft 485 kts 136°
2026-05-05 07:20 41.17365 22.22667 37149 ft 484 kts 136°
2026-05-05 07:21 41.12294 22.28549 37136 ft 485 kts 140°
2026-05-05 07:21 41.07020 22.34130 37130 ft 485 kts 141°
2026-05-05 07:22 41.01718 22.39654 37121 ft 485 kts 141°
2026-05-05 07:22 40.96289 22.44937 37118 ft 484 kts 153°
2026-05-05 07:23 40.90334 22.48966 37120 ft 484 kts 154°
2026-05-05 07:23 40.84323 22.52978 37118 ft 484 kts 154°
2026-05-05 07:24 40.78302 22.56986 37120 ft 484 kts 154°
2026-05-05 07:24 40.72287 22.60986 37109 ft 484 kts 154°
2026-05-05 07:25 40.66263 22.64994 37110 ft 485 kts 154°
2026-05-05 07:25 40.60241 22.68995 37108 ft 485 kts 154°
2026-05-05 07:26 40.54211 22.72974 37106 ft 485 kts 154°
2026-05-05 07:26 40.48219 22.76932 37107 ft 485 kts 154°
2026-05-05 07:27 40.42184 22.80911 37124 ft 485 kts 154°
2026-05-05 07:27 40.36154 22.84881 37118 ft 485 kts 154°
2026-05-05 07:28 40.30141 22.88888 37117 ft 485 kts 153°
2026-05-05 07:28 40.24135 22.92904 37101 ft 485 kts 153°
2026-05-05 07:29 40.18116 22.96904 37097 ft 485 kts 154°
2026-05-05 07:29 40.12081 23.00887 37091 ft 485 kts 154°
2026-05-05 07:30 40.06056 23.04853 37087 ft 485 kts 154°
2026-05-05 07:30 39.97052 23.10786 37096 ft 486 kts 154°
2026-05-05 07:31 39.91013 23.14764 37097 ft 486 kts 154°
2026-05-05 07:31 39.84972 23.18727 37096 ft 486 kts 154°
2026-05-05 07:32 39.78929 23.22675 37091 ft 486 kts 154°
2026-05-05 07:32 39.72877 23.26632 37086 ft 486 kts 154°
2026-05-05 07:33 39.66870 23.30534 37086 ft 486 kts 154°
2026-05-05 07:33 39.60802 23.34416 37090 ft 486 kts 154°
2026-05-05 07:34 39.54728 23.38283 37076 ft 486 kts 154°
2026-05-05 07:34 39.48653 23.42154 37085 ft 487 kts 154°
2026-05-05 07:35 39.42582 23.46034 37101 ft 487 kts 154°
2026-05-05 07:35 39.36506 23.49904 37092 ft 487 kts 155°
2026-05-05 07:36 39.30421 23.53756 37079 ft 487 kts 155°
2026-05-05 07:36 39.24345 23.57615 37075 ft 487 kts 155°
2026-05-05 07:37 39.18290 23.61571 37077 ft 488 kts 149°
2026-05-05 07:37 39.12792 23.66598 37075 ft 488 kts 143°
2026-05-05 07:38 39.07312 23.71773 37079 ft 488 kts 143°
2026-05-05 07:38 39.01832 23.76945 37089 ft 489 kts 143°
2026-05-05 07:39 38.96350 23.82126 37092 ft 489 kts 143°
2026-05-05 07:39 38.90861 23.87298 37081 ft 490 kts 143°
2026-05-05 07:40 38.88109 23.89884 36816 ft 490 kts 143°
2026-05-05 07:40 38.85357 23.92465 36553 ft 490 kts 143°
2026-05-05 07:40 38.82602 23.95047 36298 ft 491 kts 143°
2026-05-05 07:40 38.79839 23.97636 36030 ft 491 kts 143°
2026-05-05 07:41 38.77077 24.00222 35779 ft 492 kts 143°
2026-05-05 07:41 38.74342 24.02785 35533 ft 493 kts 143°
2026-05-05 07:41 38.71571 24.05377 35288 ft 494 kts 143°
2026-05-05 07:41 38.68758 24.08005 35060 ft 494 kts 143°
2026-05-05 07:42 38.66016 24.10561 34820 ft 494 kts 143°
2026-05-05 07:42 38.63234 24.13156 34582 ft 495 kts 143°
2026-05-05 07:42 38.60456 24.15749 34351 ft 495 kts 143°
2026-05-05 07:42 38.57673 24.18341 33853 ft 495 kts 143°
2026-05-05 07:43 38.54885 24.20930 32989 ft 496 kts 143°
2026-05-05 07:43 38.52085 24.23525 32189 ft 496 kts 143°
2026-05-05 07:43 38.49310 24.26092 31493 ft 490 kts 143°
2026-05-05 07:43 38.46559 24.28637 30700 ft 485 kts 143°
2026-05-05 07:44 38.43844 24.31149 29900 ft 480 kts 143°
2026-05-05 07:44 38.41083 24.33512 29075 ft 475 kts 149°
2026-05-05 07:44 38.38254 24.35641 28518 ft 469 kts 149°
2026-05-05 07:44 38.35456 24.37750 27679 ft 469 kts 149°
2026-05-05 07:45 38.32627 24.39892 26738 ft 474 kts 150°
2026-05-05 07:45 38.29813 24.42026 26134 ft 468 kts 150°
2026-05-05 07:45 38.27026 24.44134 25556 ft 463 kts 150°
2026-05-05 07:45 38.24274 24.46210 24970 ft 457 kts 150°
2026-05-05 07:46 38.21547 24.48260 24407 ft 452 kts 150°
2026-05-05 07:46 38.18858 24.50279 23858 ft 446 kts 150°
2026-05-05 07:46 38.16205 24.52272 23253 ft 441 kts 150°
2026-05-05 07:46 38.13613 24.54219 22622 ft 436 kts 150°
2026-05-05 07:47 38.11011 24.56173 22006 ft 432 kts 150°
2026-05-05 07:47 38.08429 24.58109 21368 ft 429 kts 150°
2026-05-05 07:47 38.05872 24.60023 20763 ft 426 kts 150°
2026-05-05 07:47 38.03329 24.61929 20169 ft 423 kts 150°
2026-05-05 07:48 38.00807 24.63818 19615 ft 419 kts 150°
2026-05-05 07:48 37.98302 24.65692 19058 ft 417 kts 150°
2026-05-05 07:48 37.95811 24.67555 18523 ft 414 kts 150°
2026-05-05 07:48 37.93339 24.69400 17941 ft 411 kts 149°
2026-05-05 07:49 37.90882 24.71231 17381 ft 408 kts 149°
2026-05-05 07:49 37.88447 24.73049 16850 ft 405 kts 149°
2026-05-05 07:49 37.86032 24.74848 16326 ft 401 kts 149°
2026-05-05 07:49 37.83632 24.76627 15818 ft 398 kts 149°
2026-05-05 07:50 37.81279 24.78370 15330 ft 395 kts 148°
2026-05-05 07:50 37.78916 24.80123 14836 ft 392 kts 148°
2026-05-05 07:50 37.76572 24.81863 14353 ft 389 kts 148°
2026-05-05 07:50 37.74244 24.83592 13865 ft 387 kts 148°
2026-05-05 07:51 37.71932 24.85310 13326 ft 384 kts 148°
2026-05-05 07:51 37.69643 24.87010 12804 ft 380 kts 148°
2026-05-05 07:51 37.67386 24.88683 12514 ft 370 kts 148°
2026-05-05 07:51 37.65207 24.90291 12381 ft 356 kts 148°
2026-05-05 07:52 37.63107 24.91837 12255 ft 343 kts 148°
2026-05-05 07:52 37.61078 24.93333 12126 ft 332 kts 148°
2026-05-05 07:52 37.59118 24.94780 11998 ft 322 kts 148°
2026-05-05 07:52 37.57202 24.96195 11764 ft 315 kts 148°
2026-05-05 07:53 37.55344 24.97568 11467 ft 312 kts 148°
2026-05-05 07:53 37.53475 24.98947 11148 ft 310 kts 148°
2026-05-05 07:53 37.51616 25.00315 10819 ft 308 kts 148°
2026-05-05 07:53 37.49771 25.01672 10497 ft 306 kts 147°
2026-05-05 07:54 37.47959 25.03063 10141 ft 304 kts 141°
2026-05-05 07:54 37.46889 25.04180 9900 ft 301 kts 133°
2026-05-05 07:54 37.45434 25.06053 9518 ft 298 kts 131°
2026-05-05 07:54 37.43985 25.07912 9133 ft 297 kts 131°
2026-05-05 07:55 37.42538 25.09757 8783 ft 294 kts 131°
2026-05-05 07:55 37.41110 25.11571 8521 ft 288 kts 131°
2026-05-05 07:55 37.39716 25.13344 8269 ft 282 kts 130°
2026-05-05 07:55 37.38350 25.15081 8015 ft 276 kts 130°
2026-05-05 07:56 37.37016 25.16779 7756 ft 271 kts 130°
2026-05-05 07:56 37.35701 25.18446 7331 ft 268 kts 130°
2026-05-05 07:56 37.34393 25.20103 6862 ft 266 kts 130°
2026-05-05 07:56 37.33091 25.21752 6404 ft 265 kts 130°
2026-05-05 07:57 37.31800 25.23390 5943 ft 262 kts 130°
2026-05-05 07:57 37.30523 25.25013 5548 ft 260 kts 130°
2026-05-05 07:57 37.29260 25.26619 5231 ft 257 kts 130°
2026-05-05 07:57 37.28019 25.28193 5012 ft 249 kts 130°
2026-05-05 07:58 37.26866 25.29743 4882 ft 235 kts 121°
2026-05-05 07:58 37.26137 25.31506 4658 ft 223 kts 103°
2026-05-05 07:58 37.25892 25.33390 4503 ft 217 kts 85°
2026-05-05 07:58 37.26088 25.35264 4090 ft 220 kts 69°
2026-05-05 07:59 37.26597 25.37065 3570 ft 224 kts 67°
2026-05-05 07:59 37.27112 25.38850 3413 ft 207 kts 64°
2026-05-05 07:59 37.27922 25.40227 3373 ft 191 kts 35°
2026-05-05 07:59 37.29094 25.40849 3244 ft 181 kts
2026-05-05 08:00 37.30324 25.40672 2955 ft 179 kts 342°
2026-05-05 08:00 37.31492 25.40145 2718 ft 178 kts 342°
2026-05-05 08:00 37.32655 25.39632 2456 ft 177 kts 342°
2026-05-05 08:00 37.33815 25.39120 2206 ft 176 kts 341°
2026-05-05 08:01 37.34969 25.38610 1967 ft 176 kts 341°
2026-05-05 08:01 37.36101 25.38112 1730 ft 167 kts 341°
2026-05-05 08:01 37.37155 25.37649 1532 ft 153 kts 340°
2026-05-05 08:01 37.38103 25.37231 1348 ft 138 kts 340°
2026-05-05 08:02 37.38991 25.36841 1195 ft 133 kts 339°
2026-05-05 08:02 37.39863 25.36456 1026 ft 133 kts 339°
2026-05-05 08:02 37.40729 25.36068 871 ft 132 kts 338°
2026-05-05 08:02 37.41598 25.35669 718 ft 133 kts 337°
2026-05-05 08:03 37.42460 25.35284 504 ft 134 kts 339°
2026-05-05 08:03 37.43297 25.34914 413 ft 114 kts 339°
2026-05-05 08:03 37.43882 25.34657 412 ft 65 kts 340°
2026-05-05 08:03 37.44204 25.34518 404 ft 29 kts 343°
2026-05-05 08:04 37.44297 25.34476 405 ft 10 kts 232°
2026-05-05 08:04 37.44240 25.34495 406 ft 8 kts 155°
2026-05-05 08:04 37.44142 25.34544 408 ft 21 kts 161°
2026-05-05 08:04 37.44042 25.34587 409 ft 14 kts 161°
2026-05-05 08:05 37.43963 25.34623 411 ft 11 kts 160°
2026-05-05 08:05 37.43862 25.34669 412 ft 20 kts 160°
2026-05-05 08:05 37.43730 25.34727 411 ft 18 kts 165°
2026-05-05 08:05 37.43616 25.34676 408 ft 19 kts 193°
2026-05-05 08:06 37.43529 25.34699 408 ft 6 kts 171°
2026-05-05 08:06 37.43512 25.34664 407 ft 5 kts 251°
2026-05-05 08:06 37.43506 25.34642 407 ft 2 kts 251°
2026-05-05 08:06 37.43505 25.34639 407 ft 0 kts 251°